| time (UTC) | temp F | wind direction | speed MPH | gust MPH | rain 1hr in | rain 24hr in | rain mn in | humidity % | barometer mb |
| 20260506081515 | 61 | 269 | 2.0 | 6.0 | 0.00 | 0.00 | 0.00 | 76 | 1006.5 |
| 20260506073007 | 62 | 231 | 0.0 | 3.0 | 0.00 | 0.00 | 0.00 | 74 | 1006.7 |
| 20260506071503 | 62 | 210 | 0.0 | 5.0 | 0.00 | 0.00 | 0.00 | 74 | 1006.8 |
| 20260506061556 | 64 | 144 | 1.0 | 6.0 | 0.00 | 0.00 | 0.00 | 69 | 1007.1 |
| 20260506044542 | 67 | 323 | 0.0 | 3.0 | 0.00 | 0.00 | 0.00 | 62 | 1007.3 |
| 20260506043044 | 67 | 134 | 1.0 | 7.0 | 0.00 | 0.00 | 0.00 | 61 | 1007.0 |
| 20260506041537 | 68 | 229 | 1.0 | 5.0 | 0.00 | 0.00 | 0.00 | 59 | 1007.0 |
| 20260506040037 | 68 | 155 | 2.0 | 8.0 | 0.00 | 0.00 | 0.00 | 58 | 1006.9 |
| 20260506034534 | 69 | 144 | 0.0 | 4.0 | 0.00 | 0.00 | 0.00 | 56 | 1006.8 |
| 20260506033033 | 70 | 329 | 0.0 | 6.0 | 0.00 | 0.00 | 0.00 | 54 | 1006.9 |
| 20260506031540 | 70 | 148 | 3.0 | 10.0 | 0.00 | 0.00 | 0.00 | 52 | 1006.8 |
| 20260506030032 | 70 | 171 | 1.0 | 10.0 | 0.00 | 0.00 | 0.00 | 53 | 1006.8 |
| 20260506024536 | 70 | 213 | 0.0 | 4.0 | 0.00 | 0.00 | 0.00 | 54 | 1006.7 |
| 20260506023050 | 70 | 183 | 1.0 | 6.0 | 0.00 | 0.00 | 0.00 | 55 | 1006.9 |
| 20260506021555 | 70 | 172 | 1.0 | 10.0 | 0.00 | 0.00 | 0.00 | 54 | 1006.9 |
| 20260506020030 | 70 | 198 | 1.0 | 10.0 | 0.00 | 0.00 | 0.00 | 54 | 1006.9 |
| 20260506014529 | 71 | 222 | 3.0 | 7.0 | 0.00 | 0.00 | 0.00 | 54 | 1006.7 |
| 20260506013034 | 71 | 205 | 2.0 | 7.0 | 0.00 | 0.00 | 0.00 | 54 | 1006.6 |
| 20260506011529 | 71 | 219 | 2.0 | 4.0 | 0.00 | 0.00 | 0.00 | 53 | 1006.5 |
| 20260506010029 | 72 | 222 | 1.0 | 11.0 | 0.00 | 0.00 | 0.00 | 53 | 1006.3 |
| 20260506004529 | 72 | 247 | 0.0 | 10.0 | 0.00 | 0.00 | 0.00 | 53 | 1006.1 |
| 20260506003027 | 73 | 211 | 1.0 | 4.0 | 0.00 | 0.00 | 0.00 | 51 | 1005.9 |
| 20260506001526 | 74 | 221 | 1.0 | 8.0 | 0.00 | 0.00 | 0.00 | 50 | 1005.7 |
| 20260506000026 | 74 | 232 | 2.0 | 5.0 | 0.00 | 0.00 | 0.00 | 49 | 1005.5 |
| 20260505234526 | 74 | 193 | 0.0 | 3.0 | 0.00 | 0.00 | 0.00 | 48 | 1005.4 |
| 20260505233027 | 75 | 169 | 1.0 | 5.0 | 0.00 | 0.00 | 0.00 | 46 | 1005.1 |
| 20260505231538 | 75 | 225 | 2.0 | 11.0 | 0.00 | 0.00 | 0.00 | 45 | 1004.9 |
| 20260505230026 | 76 | 227 | 6.0 | 14.0 | 0.00 | 0.00 | 0.00 | 44 | 1004.6 |
| 20260505224523 | 76 | 213 | 3.0 | 9.0 | 0.00 | 0.00 | 0.00 | 44 | 1004.4 |
| 20260505223023 | 77 | 261 | 3.0 | 17.0 | 0.00 | 0.00 | 0.00 | 44 | 1004.3 |
| 20260505221523 | 77 | 163 | 3.0 | 12.0 | 0.00 | 0.00 | 0.00 | 44 | 1004.1 |
| 20260505220024 | 78 | 261 | 4.0 | 14.0 | 0.00 | 0.00 | 0.00 | 42 | 1004.0 |
| 20260505214522 | 79 | 209 | 4.0 | 11.0 | 0.00 | 0.00 | 0.00 | 41 | 1003.9 |
| 20260505213033 | 80 | 305 | 7.0 | 25.0 | 0.00 | 0.00 | 0.00 | 33 | 1003.7 |
| 20260505211520 | 80 | 225 | 3.0 | 14.0 | 0.00 | 0.00 | 0.00 | 36 | 1003.7 |
| 20260505210019 | 80 | 241 | 6.0 | 20.0 | 0.00 | 0.00 | 0.00 | 36 | 1003.6 |
| 20260505204519 | 83 | 209 | 7.0 | 25.0 | 0.00 | 0.00 | 0.00 | 34 | 1003.8 |
| 20260505203028 | 82 | 297 | 8.0 | 19.0 | 0.00 | 0.00 | 0.00 | 32 | 1003.9 |
| 20260505201529 | 82 | 175 | 8.0 | 25.0 | 0.00 | 0.00 | 0.00 | 32 | 1003.7 |
| 20260505200015 | 82 | 190 | 11.0 | 29.0 | 0.00 | 0.00 | 0.00 | 32 | 1003.7 |
| 20260505194513 | 83 | 332 | 6.0 | 20.0 | 0.00 | 0.00 | 0.00 | 32 | 1004.0 |
| 20260505193011 | 82 | 236 | 8.0 | 25.0 | 0.00 | 0.00 | 0.00 | 33 | 1004.1 |
| 20260505191512 | 82 | 306 | 10.0 | 20.0 | 0.00 | 0.00 | 0.00 | 33 | 1004.2 |
| 20260505190011 | 81 | 277 | 6.0 | 18.0 | 0.00 | 0.00 | 0.00 | 36 | 1004.3 |
| 20260505184504 | 81 | 360 | 6.0 | 14.0 | 0.00 | 0.00 | 0.00 | 37 | 1004.8 |
| 20260505183002 | 81 | 247 | 4.0 | 14.0 | 0.00 | 0.00 | 0.00 | 38 | 1005.0 |
| 20260505181559 | 80 | 258 | 5.0 | 15.0 | 0.00 | 0.00 | 0.00 | 41 | 1004.9 |
| 20260505174559 | 81 | 208 | 4.0 | 16.0 | 0.00 | 0.00 | 0.00 | 40 | 1005.2 |
| 20260505173057 | 80 | 113 | 5.0 | 21.0 | 0.00 | 0.00 | 0.00 | 43 | 1005.4 |
| 20260505171551 | 80 | 202 | 8.0 | 21.0 | 0.00 | 0.00 | 0.00 | 41 | 1005.3 |
| 20260505170104 | 79 | 213 | 2.0 | 11.0 | 0.00 | 0.00 | 0.00 | 43 | 1005.6 |
| 20260505164547 | 79 | 148 | 4.0 | 17.0 | 0.00 | 0.00 | 0.00 | 44 | 1005.9 |
| 20260505163042 | 78 | 109 | 5.0 | 15.0 | 0.00 | 0.00 | 0.00 | 45 | 1006.1 |
| 20260505161538 | 77 | 218 | 4.0 | 13.0 | 0.00 | 0.00 | 0.00 | 45 | 1006.4 |
| 20260505153031 | 78 | 219 | 3.0 | 14.0 | 0.00 | 0.00 | 0.00 | 46 | 1006.8 |
| 20260505151536 | 77 | 221 | 4.0 | 16.0 | 0.00 | 0.00 | 0.00 | 48 | 1007.2 |
| 20260505124559 | 67 | 191 | 2.0 | 5.0 | 0.00 | 0.00 | 0.00 | 58 | 1008.3 |
| 20260505123055 | 65 | 217 | 1.0 | 7.0 | 0.00 | 0.00 | 0.00 | 61 | 1008.4 |
| 20260505121611 | 62 | 187 | 1.0 | 3.0 | 0.00 | 0.00 | 0.00 | 65 | 1008.4 |
| 20260505120046 | 60 | 206 | 1.0 | 8.0 | 0.00 | 0.00 | 0.00 | 66 | 1008.7 |
| 20260505114542 | 59 | 244 | 1.0 | 6.0 | 0.00 | 0.00 | 0.00 | 71 | 1008.8 |
| 20260505113042 | 58 | 224 | 2.0 | 6.0 | 0.00 | 0.00 | 0.00 | 70 | 1008.6 |
| 20260505111543 | 56 | 168 | 0.0 | 4.0 | 0.00 | 0.00 | 0.00 | 75 | 1008.5 |
| 20260505101546 | 52 | 200 | 0.0 | 3.0 | 0.00 | 0.00 | 0.00 | 78 | 1007.9 |
| 20260505100036 | 52 | 275 | 0.0 | 2.0 | 0.00 | 0.00 | 0.00 | 77 | 1007.8 |
| 20260505094537 | 53 | 200 | 0.0 | 2.0 | 0.00 | 0.00 | 0.00 | 76 | 1007.6 |
| 20260505093040 | 53 | 212 | 0.0 | 3.0 | 0.00 | 0.00 | 0.00 | 74 | 1007.6 |
| 20260505091532 | 54 | 179 | 0.0 | 1.0 | 0.00 | 0.00 | 0.00 | 74 | 1007.5 |
| 20260505090043 | 54 | 209 | 0.0 | 3.0 | 0.00 | 0.00 | 0.00 | 73 | 1007.6 |
| 20260505084530 | 53 | 223 | 1.0 | 5.0 | 0.00 | 0.00 | 0.00 | 75 | 1007.5 |
| 20260505083032 | 52 | 303 | 0.0 | 3.0 | 0.00 | 0.00 | 0.00 | 76 | 1007.7 |